Regional & State Weather Roundups


905 
ASUS44 KJAN 201310
RWRMS 
MISSISSIPPI HOURLY WEATHER ROUNDUP
NATIONAL WEATHER SERVICE JACKSON MS
700 AM CST TUE FEB 20 2018
NOTE: "FAIR: INDICATES FEW OR NO CLOUDS BELOW 12,000 FEET WITH NO
SIGNIFICANT WEATHER AND/OR OBSTRUCTIONS TO VISIBILITY.
MSZ001>002-007>008-010>013-018>021-025>028-034>036-201400-
NORTHWEST MISSISSIPPI
  
CITY           SKY/WX    TMP DP  RH WIND       PRES   REMARKS
BATESVILLE       N/A    N/A N/A N/A MISG        N/A                   
CLARKSDALE     CLEAR     66  66 100 SE18      30.11R                  
CLEVELAND      PTSUNNY   66  66 100 SE14      30.10S                  
GREENWOOD      FAIR      65  62  90 S10       30.15R                  
GREENVILLE     FAIR      66  62  87 SE15      30.09S                  
OLIVE BRANCH   MOCLDY    63  63 100 S12G18    30.12                   
OXFORD         CLOUDY    63  59  88 SE6       30.18R                  
TUNICA           N/A     63  61  94 SE13G20   30.11S                  
WINONA         FAIR      63  63 100 SE8G18    30.16R                  
$$
MSZ003>006-009-014>017-022>024-029>033-037>039-201400-
NORTHEAST MISSISSIPPI
  
CITY           SKY/WX    TMP DP  RH WIND       PRES   REMARKS
ABERDEEN       CLOUDY    64  64 100 SE7       30.22R                  
COLUMBUS AFB   MOCLDY    64  64 100 SE7       30.21R                  
CORINTH        PTSUNNY   64  61  88 S9        30.18R                  
GOLDN TRIANGLE CLOUDY    64  62  93 S9        30.22R                  
STARKVILLE     PTSUNNY   63  61  94 SE7       30.21R                  
TUPELO         CLOUDY    65  61  87 SE9       30.19R                  
$$
MSZ040-058-201400-
CENTRAL MISSISSIPPI
  
CITY           SKY/WX    TMP DP  RH WIND       PRES   REMARKS
JACKSON INTL   MOCLDY    66  64  93 SE8       30.15R                  
JACKSON HAWKNS MOCLDY    66  65  96 SE8       30.15R                  
MADISON        PTSUNNY   64  63  94 SE3       30.16R                  
MERIDIAN KEY   CLOUDY    67  64  90 S8        30.20S                  
MERIDIAN NAS   CLOUDY    66  64  93 SE5       30.21R                  
RAYMOND        FAIR      66  64  94 E3        30.14R                  
VICKSBURG VKS  CLOUDY    70  64  83 S7G16     30.12S                  
$$
MSZ059>079-201400-
SOUTH MISSISSIPPI
  
CITY           SKY/WX    TMP DP  RH WIND       PRES   REMARKS
COLUMBIA       PTSUNNY   70  66  88 SE6       30.20R                  
HATTIESBURG    CLOUDY    67  66  97 SE3       30.18R                  
LAUREL         CLOUDY    66  66 100 SE5       30.19R                  
MCCOMB         CLOUDY    70  66  87 SE10      30.15R                  
NATCHEZ        MOCLDY    69  66  90 SE10      30.12R                  
PINE BELT      FAIR      65  64  97 E3        30.18S                  
$$
MSZ080>082-201400-
COASTAL MISSISSIPPI
  
CITY           SKY/WX    TMP DP  RH WIND       PRES   REMARKS
BAY ST LOUIS   MOCLDY    70  68  94 SE12G17   30.16                   
BILOXI         MOCLDY    70  68  94 SE12      30.17S                  
PASCAGOULA     CLOUDY    70  67  90 SE12      30.20R                  
GULFPORT       FAIR      70  69  97 SE18      30.16S                  
$$
LAZ007>009-015>016-023>026-201400-
NORTHEAST LOUISIANA
  
CITY           SKY/WX    TMP DP  RH WIND       PRES   REMARKS
BASTROP        CLOUDY    68  68  98 SE3       30.09S                  
TALLULAH/VBURG CLOUDY    68  65  90 SE9       30.12R                  
VIDALIA        FAIR      68  65  91 SE7       30.10R                  
$$